{"data":{"norad_id":41380,"intl_designator":"2016-013A","name":"SES-9","alt_names":[],"object_type":"PAYLOAD","status":"ACTIVE","operator":null,"country":"SES","launch_date":"2016-03-04","launch_site_code":"AFETR","launch_vehicle":null,"mission":null,"orbit_class":"UNKNOWN","rcs_meters":20.5325,"size_class":null,"mass_kg":null,"dimensions":null,"purposes":["comms"],"wikipedia_slug":null,"has_3d_model":false,"image_url":null,"decayed_at":null,"tle_current":{"epoch":"2026-09-19T12:21:18.464256Z","epoch_age_seconds":99411,"freshness":"FRESH","line1":"1 41380U 16013A   26262.51479704  .00000000  00000+0  00000+0 0  9990","line2":"2 41380   0.0125 148.6104 0001922 339.6879 163.7539  1.00268584 38389","mean_motion":1.00268584,"eccentricity":0.0001922,"inclination_deg":0.0125,"raan_deg":148.6104,"arg_perigee_deg":339.6879,"mean_anomaly_deg":163.7539,"bstar":0,"rev_number":3838,"period_min":1436.1427503554,"perigee_km":35779.388107604,"apogee_km":35795.596575523,"semimajor_km":42165.629341563,"source":"CELESTRAK","updated_at":"2026-09-20T09:00:35.684459Z"}}}